Miscellaneous Local Product
Issued by NWS Hastings, NE

Home | Current Version | Previous Version | Graphics & Text | Print | Product List | Glossary On
Versions: 1 2 3 4 5 6 7 8 9 10 11 12 13 14 15 16 17 18 19 20 21 22 23 24 25 26 27 28 29 30 31 32 33 34 35 36 37 38 39 40 41 42 43 44 45 46 47 48 49 50
258
AXUS43 KGID 181702
MISGRI

GID CWA HOURLY WEATHER ROUNDUP
NATIONAL WEATHER SERVICE HASTINGS NE
1200 PM CDT WED APR 18 2018

NOTE: "FAIR" INDICATES FEW OR NO CLOUDS BELOW 12,000 FEET WITH NO
SIGNIFICANT WEATHER AND/OR OBSTRUCTIONS TO VISIBILITY.

...SOUTH CENTRAL NEBRASKA...

CITY           SKY/WX    TMP DP  RH WIND       PRES   REMARKS
GRAND ISLAND   CLOUDY    39  30  70 NW22G33   30.08R WCI  29
KEARNEY        CLOUDY    39  27  62 N28G35    30.10R WCI  28
HASTINGS       CLOUDY    38  30  73 N25G36    30.09R WCI  27
ORD            LGT SNOW  35  32  88 NW22G31   30.09R FOG     WCI  23
YORK             N/A     37  36  93 NW22      30.05R WCI  27
AURORA         CLOUDY    38  32  78 NW28      30.07R WCI  26
LEXINGTON      MOSUNNY   45  33  63 NW28      30.13R
HOLDREGE       PTSUNNY   41  31  69 N23G32    30.11R
HEBRON         CLOUDY    40  27  60 N23G37    30.07R WCI  30

...NEBRASKA PANHANDLE...

CITY           SKY/WX    TMP DP  RH WIND       PRES   REMARKS
CHADRON        SUNNY     52  32  46 NW18G26   30.17R
ALLIANCE       SUNNY     49  32  52 NW23G30   30.17R
SCOTTSBLUFF    MOSUNNY   51  30  44 N22G33    30.22R
SIDNEY         MOSUNNY   51  26  37 NW28G36   30.21R

...WESTERN AND NORTH CENTRAL NEBRASKA...

CITY           SKY/WX    TMP DP  RH WIND       PRES   REMARKS
VALENTINE      CLOUDY    37  32  82 NW14G22   30.14R WCI  28
AINSWORTH      CLOUDY    34  32  92 NW18G25   30.12R WCI  23
ONEILL         CLOUDY    37  34  90 NW17G26   30.07R FOG     WCI  27
BROKEN BOW     CLOUDY    40  32  73 NW20G29   30.11R WCI  30
IMPERIAL       MOSUNNY   52  30  43 NW22G40   30.16S
NORTH PLATTE   MOSUNNY   49  33  54 N25G38    30.13R
MCCOOK         PTSUNNY   52  31  44 N26G41    30.13R

...EASTERN NEBRASKA...

CITY           SKY/WX    TMP DP  RH WIND       PRES   REMARKS
NORFOLK        LGT SNOW  33  31  92 NW12      30.00R FOG     WCI  24
SO SIOUX CITY  LGT SNOW  33  30  88 N15       30.00R VSB 1   WCI  23
TEKAMAH        CLOUDY    35  31  85 N16       29.99R WCI  25
COLUMBUS       CLOUDY    38  33  82 NW20G26   30.04R WCI  28
ALBION         LGT SNOW  36  32  88 NW15G22   30.05R WCI  26
OMAHA EPPLEY   FLURRIES  37  30  75 N25G32    29.98R WCI  25
OFFUTT AFB     FLURRIES  36  28  73 NW15      29.98R WCI  27
MILLARD        CLOUDY    36  30  79 N12G20    29.99R WCI  28
LINCOLN        CLOUDY    37  28  70 N18       30.03R WCI  27
NEBRASKA CITY  CLOUDY    34  34  99 NW20G26   29.98R WCI  22
BEATRICE       CLOUDY    38  30  73 N26       30.03R WCI  26
FALLS CITY     CLOUDY    36  30  79 NW21G32   29.97R WCI  25

...NORTHERN KANSAS...

CITY           SKY/WX    TMP DP  RH WIND       PRES   REMARKS
GOODLAND       SUNNY     54  24  31 N29G47    30.17R
HILL CITY      PTSUNNY   54  30  40 NW29G43   30.13R
NORTON         MOSUNNY   54  32  43 NW29G44   30.10S
PHILLIPSBURG   MOSUNNY   50  28  43 NW29G40   30.12R
SMITH CENTER   PTSUNNY   45  27  49 NW26G35   30.11R
BELOIT         PTSUNNY   43  27  52 NW29G35   30.10R
HAYS           MOSUNNY   57  29  34 N31G41    30.10R
RUSSELL        MOSUNNY   56  31  38 NW33G46   30.09R
CONCORDIA      CLOUDY    41  26  55 NW23G35   30.07R
SALINA         MOSUNNY   54  31  41 NW26G40   30.06R
TOPEKA         CLOUDY    46  32  58 NW21G35   29.99R



USA.gov is the U.S. government's official web portal to all federal, state and local government web resources and services.